Weather History for Toronto, ON

Change the Weather History Date:

Tuesday, October 18, 2011

  Actual Average Record
Temperature  
Mean Temperature 48 °F -  
Max Temperature 54 °F 49 °F 68 °F (1998)
Min Temperature 43 °F 39 °F 35 °F (2001)
Degree Days  
Heating Degree Days 16    
Moisture  
Dew Point 43 °F    
Average Humidity 75    
Maximum Humidity 87    
Minimum Humidity 59    
Precipitation  
Precipitation 0.00 in 0.09 in - ()
Sea Level Pressure  
Sea Level Pressure 29.80 in    
Wind  
Wind Speed 8 mph ()    
Max Wind Speed 14 mph    
Max Gust Speed -    
Visibility 9.1 miles    
Events Rain    
Averages and records for this station are not official NWS values.
T = Trace of Precipitation, MM = Missing Value Source: Averaged Metar Reports

Daily Weather History Graph

Daily Weather History Graph

Search for Another Location

Airport:

Trip Planner

Search our weather history database for the weather conditions in past years. The results will help you decide how hot, cold, wet, or windy it might be!

Date:

Astronomy

Oct. 18, 2011 Rise Set
Actual Time 7:35 AM EDT 6:29 PM EDT
Civil Twilight 7:06 AM EDT 6:58 PM EDT
Nautical Twilight 6:32 AM EDT 7:31 PM EDT
Astronomical Twilight 5:59 AM EDT 8:05 PM EDT
Moon 11:02 PM EDT (10/18) 1:31 PM EDT (10/18)
Length of Visible Light 11h 52m
Length of Day
10h 54m
Waning Gibbous, 65% of the Moon is Illuminated
Oct 18
Waning Gibbous
Oct 19
Last Quarter
Oct 26
New
Nov 2
First Quarter
Nov 10
Full

Hourly Weather History & Observations

Time (EDT) Temp. Windchill Dew Point Humidity Pressure Visibility Wind Dir Wind Speed Gust Speed Precip Events Conditions
12:00 AM 44.6 °F 38.8 °F 39.2 °F 81% 29.71 in 9.0 mi SSW 11.5 mph - N/A   Mostly Cloudy
2:00 AM 45 °F - 40 °F 78% 29.72 in 10 mi West 6.9 mph - -   Overcast
2:00 AM 44.6 °F 41.4 °F 41.0 °F 87% 29.71 in 9.0 mi West 5.8 mph - N/A   Overcast
4:00 AM 46.4 °F 41.9 °F 41.0 °F 81% 29.70 in 9.0 mi SW 9.2 mph - N/A   Overcast
5:00 AM 44.6 °F 38.8 °F 39.2 °F 81% 29.72 in 9.0 mi SW 11.5 mph - N/A   Partly Cloudy
6:00 AM 44.6 °F 40.7 °F 39.2 °F 81% 29.73 in 9.0 mi SW 6.9 mph - N/A   Mostly Cloudy
7:00 AM 44.6 °F 40.7 °F 39.2 °F 81% 29.74 in 9.0 mi WSW 6.9 mph - N/A   Overcast
8:00 AM 48 °F - 39 °F 62% 29.75 in 10 mi WNW 9.2 mph - -  
8:00 AM 48.2 °F - 39.2 °F 71% 29.75 in 9.0 mi WNW 8.1 mph - N/A   Scattered Clouds
9:00 AM 46.4 °F 42.9 °F 41.0 °F 81% 29.78 in 9.0 mi WSW 6.9 mph - N/A   Overcast
10:00 AM 46.4 °F 44.3 °F 41.0 °F 81% 29.80 in 9.0 mi SSW 4.6 mph - N/A   Overcast
12:00 PM 50.0 °F - 42.8 °F 76% 29.81 in 9.0 mi South 11.5 mph - N/A   Overcast
1:00 PM 51.8 °F - 42.8 °F 71% 29.81 in 9.0 mi SW 5.8 mph - N/A   Overcast
2:00 PM 54 °F - 44 °F 59% 29.80 in 10 mi South 5.8 mph - -   Overcast
2:00 PM 53.6 °F - 44.6 °F 72% 29.80 in 9.0 mi South 6.9 mph - N/A   Overcast
3:00 PM 53.6 °F - 44.6 °F 72% 29.81 in 9.0 mi Variable 2.3 mph - N/A   Mostly Cloudy
5:00 PM 53.6 °F - 44.6 °F 72% 29.81 in 9.0 mi Variable 2.3 mph - N/A   Overcast
6:00 PM 53.6 °F - 46.4 °F 77% 29.82 in 9.0 mi East 2.3 mph - N/A   Mostly Cloudy
7:00 PM 50.0 °F - 44.6 °F 82% 29.85 in 9.0 mi ENE 8.1 mph - N/A   Overcast
8:00 PM 52 °F - 44 °F 67% 29.83 in 10 mi ENE 10.4 mph - -  
9:00 PM 53.6 °F - 44.6 °F 72% 29.85 in 9.0 mi NE 8.1 mph - N/A   Overcast
10:00 PM 53.6 °F - 46.4 °F 77% 29.86 in 9.0 mi ENE 12.7 mph - N/A   Overcast
10:03 PM 53.6 °F - 46.4 °F 77% 29.85 in 9.0 mi NE 13.8 mph - N/A Rain Light Rain
10:22 PM 51.8 °F - 44.6 °F 76% 29.86 in 9.0 mi ENE 11.5 mph - N/A   Overcast
11:00 PM 51.8 °F - 44.6 °F 76% 29.86 in 9.0 mi ENE 10.4 mph - N/A   Mostly Cloudy
11:12 PM 51.8 °F - 42.8 °F 71% 29.85 in 9.0 mi NE 11.5 mph - N/A   Overcast
11:17 PM 51.8 °F - 42.8 °F 71% 29.85 in 9.0 mi NE 10.4 mph - N/A Rain Light Rain
11:19 PM 51.8 °F - 42.8 °F 71% 29.85 in 9.0 mi NE 11.5 mph - N/A Rain Light Rain
11:32 PM 51.8 °F - 41.0 °F 67% 29.85 in 9.0 mi NE 11.5 mph - N/A   Mostly Cloudy
11:58 PM 51.8 °F - 42.8 °F 71% 29.86 in 9.0 mi NE 10.4 mph - N/A Rain Light Rain